Wind_Speed
17 15 14 14 14 12 9 8 7 5 8 12 16 20 21 19 15 12 10 9 9 8 8 8 9 9 10 11 12 13 13 14 15 16 16 17 17 18 19 19 19 20 20 20 20 20 21 21 21
20 17 15 15 15 13 11 10 6 6 8 11 15 18 18 16 13 10 9 8 7 6 6 6 6 7 7 8 8 9 9 10 12 13 14 15 16 18 19 20 20 21 22 22 22 22 22 23 23
20 17 16 16 17 14 12 9 5 7 10 11 12 13 12 10 8 7 7 5 4 4 5 6 6 6 7 7 7 7 8 9 9 11 12 13 15 17 18 19 20 21 21 21 21 21 21 21 21
17 16 16 18 18 14 11 9 6 7 11 11 9 8 6 4 5 6 6 5 4 4 5 5 5 6 6 7 7 8 8 9 9 10 11 12 13 14 16 17 17 18 18 18 18 18 18 18 19
15 17 19 20 19 15 11 7 4 6 9 9 8 6 4 7 8 8 8 7 5 4 4 4 5 6 6 6 7 8 8 9 9 10 11 11 12 13 14 15 16 17 17 17 17 18 18 18 19
16 19 22 22 20 15 11 6 2 6 10 10 8 7 6 7 9 9 9 7 6 5 5 5 6 6 6 6 6 7 7 8 8 10 11 12 13 15 16 17 18 18 19 20 20 20 20 20 21
18 21 24 22 18 14 10 4 3 10 12 11 9 7 6 7 9 9 9 8 7 6 6 7 6 6 6 6 6 6 7 8 9 10 11 13 14 15 16 17 19 19 20 21 21 21 22 22 22
20 25 26 23 18 13 8 4 4 11 14 12 9 7 5 7 9 10 10 9 8 8 7 7 6 6 6 6 5 6 7 8 9 10 11 12 13 15 16 17 18 19 20 20 20 21 21 21 22
21 27 26 23 20 15 10 7 6 12 15 13 8 6 6 7 8 9 10 9 8 8 7 7 7 6 6 6 6 7 8 9 10 11 11 12 13 14 15 15 16 16 17 17 18 18 19 20 20
24 28 26 24 23 19 14 9 10 14 16 13 9 7 6 5 7 8 10 10 9 9 8 7 7 7 7 7 8 8 9 10 10 11 12 13 13 13 13 13 14 14 15 15 15 15 16 18 19
26 28 27 26 24 20 15 10 11 15 16 14 12 10 8 7 8 8 9 10 11 11 10 9 9 8 8 8 9 9 9 10 11 12 12 13 13 13 13 13 13 13 13 13 14 14 16 17 18
27 29 28 27 24 21 16 12 14 17 17 16 14 13 11 8 10 12 11 11 11 11 12 11 11 11 10 9 9 9 10 10 11 12 13 14 14 14 14 13 13 13 14 14 13 14 15 17 18
26 29 28 27 24 21 18 17 18 19 20 18 17 15 14 15 16 15 14 14 13 11 13 14 13 14 13 12 11 11 12 12 12 13 14 15 16 16 16 16 16 16 16 17 17 17 18 19 20
25 30 30 29 26 22 21 21 23 24 25 23 21 18 18 19 19 19 18 16 17 15 15 16 15 15 16 14 14 13 13 15 15 15 16 16 17 18 18 20 20 20 20 21 22 22 23 24 25
28 30 29 27 26 24 23 23 23 27 28 27 24 21 21 22 24 23 23 22 22 21 21 20 19 18 18 18 17 16 15 17 18 19 19 19 20 21 22 23 24 25 25 26 27 27 28 29 30
31 31 28 26 25 23 24 21 20 26 29 29 26 24 24 25 27 28 29 29 28 25 25 23 25 24 23 23 21 21 20 20 21 22 23 24 24 25 26 27 28 29 29 30 32 33 33 34 34
32 31 29 27 25 23 24 20 18 24 28 28 26 25 25 27 30 32 33 34 32 29 28 28 30 30 32 31 28 27 26 25 26 27 28 29 29 30 31 32 31 32 32 33 35 37 38 38 38
30 31 30 27 23 24 23 19 17 21 25 27 27 25 26 28 31 34 36 36 35 33 32 33 34 36 36 37 36 34 32 31 30 31 32 33 33 34 35 36 36 35 34 34 35 37 39 40 41
31 33 32 29 27 29 27 23 19 19 23 25 26 27 28 31 34 36 38 38 37 36 36 36 36 38 40 40 40 38 35 35 34 34 35 36 36 36 38 38 39 37 35 35 35 36 38 41 42
32 33 32 29 29 31 30 28 25 24 24 25 27 29 31 34 36 38 39 40 39 39 39 38 39 41 43 44 43 41 38 36 35 35 37 38 39 39 40 40 39 37 36 35 35 36 37 40 42
29 30 29 29 29 32 33 32 27 25 24 26 28 30 33 36 37 38 39 40 40 40 40 40 42 44 46 47 45 41 38 36 36 37 37 38 39 40 41 40 39 39 39 38 38 38 39 41 43
25 24 25 27 30 32 33 35 29 27 27 28 28 30 34 36 37 37 38 38 38 39 41 42 44 47 48 48 45 40 36 34 35 37 37 38 40 41 40 40 41 41 41 42 41 41 42 44 46
22 19 20 23 27 31 33 36 31 29 32 34 34 35 36 37 37 37 37 36 37 39 41 44 46 48 49 48 43 39 36 34 35 37 39 41 41 42 43 43 44 45 45 45 45 45 46 47 50
18 18 22 25 28 28 24 28 25 22 28 35 40 40 40 38 38 36 35 35 36 39 42 45 47 48 48 47 43 42 40 38 39 41 42 44 45 45 45 46 47 47 48 48 48 48 50 51 54
20 22 24 26 26 21 16 19 15 16 23 29 33 34 35 34 33 32 32 34 37 40 43 45 47 47 48 46 44 44 44 43 43 44 44 45 46 46 47 48 49 49 50 50 50 51 53 55 57
22 23 24 23 20 16 17 17 13 17 19 21 23 25 26 28 29 30 32 35 38 41 43 45 45 45 45 45 45 44 44 44 45 46 46 47 47 48 49 50 50 51 52 52 53 54 57 58 61
23 23 22 22 21 20 20 18 17 19 20 21 22 23 25 27 29 32 35 37 41 43 44 43 44 44 43 42 42 42 44 45 47 48 49 50 51 52 52 51 52 52 53 54 56 58 60 62 64
26 23 24 25 25 25 22 20 22 24 26 28 28 28 29 30 32 35 38 41 44 45 46 45 44 41 39 39 40 43 45 47 49 51 52 53 54 54 55 55 56 56 57 58 61 62 63 64 65
27 28 28 27 26 26 25 25 25 26 28 29 31 32 33 34 36 38 41 44 45 45 46 46 43 38 37 39 41 44 47 50 53 54 56 57 58 58 59 59 60 61 62 62 63 63 63 63 64
27 31 33 32 29 26 25 28 31 31 31 31 32 34 35 37 38 40 42 43 45 46 47 46 42 37 37 40 43 47 51 54 56 57 59 60 61 62 63 63 64 64 64 64 63 62 62 63 63
Wind_Direction
214 203 193 185 180 181 206 236 248 271 304 320 325 321 318 316 318 318 309 306 300 298 299 292 287 283 280 279 276 273 271 270 267 265 264 266 267 269 270 271 271 272 271 270 269 268 268 267 267
218 210 198 189 183 186 212 236 248 267 289 309 316 312 306 307 308 307 303 300 294 294 293 291 291 287 284 282 278 275 274 272 269 266 265 265 266 267 269 270 270 271 272 272 272 271 271 270 270
221 212 199 188 181 193 215 225 231 274 293 305 313 305 301 307 309 310 313 317 311 301 294 291 293 291 288 286 286 286 286 281 276 273 272 271 270 270 271 271 271 272 272 273 274 274 274 274 274
214 207 192 182 180 196 216 217 210 258 290 309 316 311 315 359 8 5 8 7 344 316 302 296 299 297 293 290 290 291 291 291 288 285 285 283 281 279 277 275 275 275 274 274 275 275 275 275 275
199 191 180 175 182 194 208 201 205 267 295 313 324 341 7 37 32 25 25 25 9 347 319 302 298 292 286 284 288 291 294 296 297 295 293 290 287 285 283 280 279 277 275 274 275 276 276 276 276
187 178 173 172 182 189 194 198 252 288 312 314 322 339 12 38 34 23 21 19 0 342 321 305 298 295 292 291 295 301 303 303 302 299 295 291 288 286 284 281 278 275 275 274 275 276 277 277 276
178 174 169 171 180 187 190 190 293 315 310 300 308 325 349 26 31 20 16 11 348 334 318 308 303 299 299 303 307 310 311 307 304 301 297 292 288 286 284 281 279 277 276 275 275 275 276 277 276
177 172 169 173 179 181 182 180 287 300 302 296 302 323 343 23 33 20 9 5 345 326 315 306 303 302 303 306 313 318 318 314 310 308 305 300 296 291 287 284 282 280 279 277 276 276 276 276 276
178 172 175 180 179 177 175 189 242 277 285 288 301 329 352 16 31 22 5 3 353 338 326 314 307 306 305 307 313 319 321 321 320 318 315 311 307 303 298 293 290 287 284 281 280 278 277 276 276
178 176 184 186 181 180 176 190 235 259 273 278 286 306 336 354 13 12 358 358 359 353 346 332 324 322 319 316 318 322 324 325 324 325 324 321 319 316 311 306 301 296 289 285 281 278 276 276 276
181 185 190 188 185 185 182 199 235 250 261 272 281 292 304 308 321 340 341 343 352 352 351 349 340 339 336 329 327 325 325 327 327 328 329 327 325 324 321 317 310 300 292 286 281 277 276 275 275
190 194 196 196 196 196 192 207 235 247 254 262 272 279 282 288 300 311 322 328 338 346 346 345 341 340 340 335 331 327 323 325 327 327 327 326 326 324 321 316 308 300 295 290 283 276 273 273 275
203 204 205 207 210 213 212 209 226 243 253 262 271 280 287 297 300 300 300 308 318 324 329 330 331 333 333 331 328 327 324 324 325 324 324 324 323 321 316 309 304 300 297 292 285 279 275 273 273
213 213 214 217 219 228 230 219 221 235 248 258 267 276 286 292 296 300 302 302 308 310 319 321 318 320 323 320 320 322 322 319 317 318 320 319 318 317 315 310 305 299 292 286 283 279 276 275 274
220 222 225 227 230 233 235 229 228 238 249 258 266 274 283 288 293 295 296 300 302 306 313 314 310 310 313 315 313 312 311 309 307 308 310 310 311 311 308 305 305 299 292 286 283 282 280 279 278
229 230 232 234 237 239 242 238 232 240 250 257 264 271 279 284 289 291 293 296 300 303 311 310 312 306 308 310 309 306 302 299 299 301 302 305 306 307 306 305 304 304 299 292 286 285 284 283 283
234 237 238 238 244 248 251 248 233 234 246 253 260 268 277 283 287 291 292 295 298 302 310 312 313 309 309 309 306 303 299 296 294 296 298 300 301 302 303 303 302 303 301 295 290 284 283 283 284
237 240 239 236 236 238 242 244 233 231 237 247 256 265 275 282 287 289 290 294 298 302 307 310 310 308 306 305 302 301 297 294 291 291 292 294 295 297 298 299 299 299 297 294 291 285 282 282 283
233 235 235 233 229 234 235 236 232 229 233 239 251 263 273 280 285 287 290 293 297 300 304 307 308 306 304 301 299 297 293 290 288 286 287 289 290 292 293 294 294 294 296 295 293 287 283 282 283
231 234 234 230 227 236 238 239 239 235 236 238 248 259 269 278 282 286 290 293 296 298 301 303 304 303 301 299 297 291 289 287 283 283 285 285 285 288 290 291 293 293 295 292 291 289 286 285 286
232 236 236 231 223 231 239 242 242 243 244 243 246 255 264 273 278 283 288 291 293 295 297 298 298 297 296 293 290 285 284 285 283 284 284 287 289 290 292 296 297 296 294 292 290 289 288 289 289
224 230 233 231 227 228 238 245 241 240 241 242 245 253 259 265 272 279 284 287 289 290 291 292 293 293 292 288 289 285 285 287 289 290 289 290 291 293 297 299 298 295 293 292 291 290 290 290 290
216 217 228 236 240 239 237 247 248 241 241 243 246 252 259 262 265 271 277 282 285 285 286 287 288 289 289 289 290 291 293 295 294 294 293 293 296 298 297 296 295 294 293 292 292 291 291 291 291
214 224 234 241 246 249 247 250 250 243 243 243 245 251 255 257 261 265 271 277 280 280 279 281 283 286 287 290 293 298 299 298 296 294 294 295 296 295 294 294 293 292 293 292 292 290 291 292 292
211 227 238 244 247 249 245 246 243 239 239 242 244 248 251 253 256 259 265 270 273 274 274 277 281 284 287 292 296 297 297 295 294 293 293 294 294 294 293 293 293 293 293 291 290 291 291 292 292
215 229 238 245 247 242 227 233 245 247 247 248 252 254 254 253 254 256 260 263 265 267 270 274 279 283 287 292 294 294 293 292 293 293 292 293 293 293 293 293 293 293 293 292 291 292 292 292 292
225 232 241 248 247 244 233 235 251 256 260 263 265 267 265 262 260 261 263 264 266 268 271 275 278 282 286 289 292 291 291 292 292 291 291 291 291 292 293 293 294 294 294 294 294 294 294 294 294
227 233 242 246 249 250 247 246 248 249 253 257 263 268 270 270 270 269 270 270 270 272 273 277 277 278 282 285 288 290 290 290 291 290 291 291 291 291 292 293 294 295 295 295 295 296 296 296 297
226 229 236 243 247 250 254 254 253 252 251 253 256 261 265 268 269 270 272 275 277 279 280 280 276 275 281 285 287 289 289 289 289 289 288 289 289 291 292 293 294 296 296 296 296 297 297 299 300
230 230 230 234 237 242 250 254 253 254 254 255 257 260 264 268 270 272 274 275 278 279 282 286 282 278 282 284 286 287 287 287 287 287 287 288 289 291 293 294 295 296 296 296 297 297 298 300 301
Height
5896 5899 5901 5904 5906 5906 5904 5903 5903 5902 5902 5904 5905 5905 5903 5902 5902 5903 5900 5898 5898 5897 5897 5897 5897 5897 5897 5897 5897 5897 5897 5897 5897 5896 5896 5896 5897 5897 5897 5897 5896 5896 5895 5895 5895 5894 5894 5893 5893
5893 5897 5900 5903 5904 5904 5903 5903 5903 5901 5902 5904 5906 5905 5903 5901 5900 5899 5898 5897 5897 5896 5896 5896 5896 5896 5896 5896 5896 5896 5896 5896 5895 5895 5895 5895 5895 5895 5895 5894 5894 5893 5893 5892 5892 5891 5890 5890 5890
5891 5894 5898 5901 5903 5903 5902 5902 5901 5899 5900 5903 5905 5904 5902 5901 5899 5897 5896 5896 5895 5895 5895 5895 5896 5896 5896 5896 5896 5895 5895 5895 5894 5894 5894 5894 5893 5893 5892 5892 5892 5891 5891 5890 5889 5888 5887 5887 5886
5889 5892 5896 5899 5901 5901 5900 5901 5900 5899 5900 5902 5904 5903 5901 5901 5898 5896 5895 5895 5895 5895 5895 5895 5895 5895 5895 5895 5894 5894 5894 5893 5893 5893 5892 5892 5891 5891 5891 5890 5890 5889 5888 5888 5887 5886 5885 5884 5883
5887 5890 5893 5896 5898 5898 5898 5898 5898 5898 5901 5902 5902 5902 5900 5899 5897 5895 5895 5895 5895 5895 5895 5895 5894 5894 5893 5893 5893 5892 5892 5892 5891 5891 5891 5890 5890 5889 5889 5888 5888 5887 5886 5885 5885 5884 5883 5882 5881
5886 5888 5891 5893 5895 5896 5896 5896 5896 5898 5901 5902 5902 5901 5899 5899 5897 5895 5895 5895 5895 5895 5894 5894 5894 5893 5892 5892 5891 5891 5891 5890 5890 5890 5889 5889 5888 5888 5887 5887 5886 5885 5884 5883 5882 5881 5880 5879 5878
5885 5887 5890 5893 5894 5895 5894 5894 5894 5896 5899 5900 5900 5900 5899 5899 5897 5895 5895 5895 5894 5894 5894 5893 5893 5892 5892 5891 5890 5890 5889 5889 5888 5888 5887 5887 5886 5885 5884 5884 5883 5882 5881 5880 5879 5879 5878 5877 5875
5882 5886 5889 5891 5892 5892 5892 5892 5893 5895 5897 5898 5899 5899 5899 5899 5898 5896 5895 5895 5894 5894 5893 5892 5892 5891 5890 5890 5889 5888 5888 5887 5886 5886 5885 5884 5883 5882 5881 5880 5879 5879 5878 5877 5876 5875 5874 5873 5872
5881 5885 5887 5889 5890 5889 5889 5890 5893 5895 5896 5897 5898 5899 5899 5899 5899 5897 5896 5895 5894 5893 5892 5891 5890 5890 5889 5888 5887 5886 5886 5885 5884 5883 5882 5881 5880 5879 5878 5877 5876 5875 5874 5873 5872 5871 5870 5869 5868
5880 5883 5885 5887 5888 5887 5887 5889 5892 5893 5894 5895 5896 5897 5898 5898 5899 5899 5897 5895 5894 5892 5891 5890 5889 5888 5887 5886 5885 5884 5883 5883 5882 5880 5879 5878 5877 5876 5875 5873 5872 5871 5870 5869 5869 5868 5867 5866 5865
5879 5881 5883 5884 5885 5885 5885 5886 5889 5891 5891 5893 5894 5896 5896 5897 5898 5899 5898 5896 5893 5891 5890 5889 5887 5887 5886 5885 5883 5883 5882 5881 5879 5878 5877 5876 5874 5873 5872 5871 5870 5868 5867 5866 5866 5865 5863 5862 5861
5877 5878 5880 5881 5882 5882 5881 5883 5885 5888 5889 5890 5892 5893 5894 5894 5895 5897 5897 5895 5893 5891 5889 5888 5885 5885 5884 5883 5882 5881 5880 5879 5878 5876 5875 5874 5872 5871 5870 5869 5868 5866 5865 5864 5863 5862 5860 5859 5858
5875 5875 5877 5878 5879 5879 5879 5880 5882 5883 5885 5886 5888 5890 5890 5891 5891 5893 5894 5894 5892 5891 5889 5887 5885 5883 5882 5881 5880 5879 5877 5876 5875 5874 5873 5872 5871 5869 5868 5867 5866 5864 5863 5861 5860 5859 5857 5856 5854
5872 5872 5873 5874 5876 5877 5877 5878 5880 5881 5882 5883 5884 5886 5886 5886 5887 5887 5889 5890 5889 5888 5886 5884 5883 5881 5880 5879 5878 5876 5875 5873 5872 5871 5870 5869 5868 5867 5865 5863 5863 5861 5860 5858 5857 5855 5854 5852 5851
5867 5868 5870 5872 5874 5874 5875 5876 5879 5879 5878 5879 5880 5882 5882 5882 5882 5882 5884 5885 5885 5884 5883 5881 5879 5878 5876 5876 5875 5873 5872 5870 5869 5867 5866 5865 5863 5862 5860 5858 5857 5856 5855 5853 5852 5850 5848 5847 5845
5861 5864 5867 5870 5871 5872 5873 5875 5878 5876 5874 5874 5876 5877 5878 5878 5878 5878 5879 5879 5880 5879 5878 5877 5875 5873 5871 5871 5870 5869 5868 5867 5864 5862 5860 5858 5857 5855 5853 5851 5850 5848 5846 5845 5844 5842 5841 5839 5837
5857 5860 5863 5866 5868 5869 5868 5871 5874 5873 5870 5869 5871 5872 5873 5874 5874 5874 5873 5873 5872 5872 5872 5871 5870 5868 5865 5864 5863 5863 5862 5861 5858 5855 5853 5851 5850 5848 5846 5844 5843 5841 5839 5837 5836 5834 5832 5830 5828
5853 5855 5857 5861 5863 5862 5862 5864 5868 5869 5868 5867 5867 5868 5868 5869 5869 5868 5868 5867 5866 5866 5866 5866 5864 5861 5858 5856 5855 5854 5854 5852 5850 5848 5845 5843 5842 5840 5838 5837 5835 5833 5831 5829 5827 5824 5822 5820 5819
5845 5846 5849 5855 5857 5855 5855 5856 5860 5863 5864 5864 5864 5864 5864 5864 5864 5863 5861 5861 5860 5860 5860 5859 5858 5855 5852 5849 5848 5845 5844 5843 5842 5840 5837 5835 5833 5831 5830 5828 5826 5825 5822 5820 5818 5815 5813 5811 5809
5837 5839 5843 5847 5851 5850 5849 5850 5853 5855 5857 5859 5860 5860 5859 5858 5858 5857 5856 5854 5853 5853 5853 5852 5852 5849 5845 5843 5840 5836 5834 5833 5832 5831 5829 5826 5824 5822 5821 5819 5817 5815 5813 5811 5808 5806 5803 5800 5798
5831 5835 5838 5841 5844 5843 5843 5844 5847 5849 5851 5853 5855 5855 5855 5854 5852 5851 5850 5849 5848 5847 5846 5846 5845 5842 5838 5834 5831 5826 5825 5825 5824 5822 5820 5817 5815 5814 5813 5810 5808 5806 5804 5801 5798 5796 5793 5790 5787
5826 5830 5832 5834 5836 5837 5838 5837 5842 5844 5845 5847 5848 5849 5849 5849 5847 5846 5845 5844 5843 5841 5840 5839 5837 5834 5830 5824 5821 5817 5816 5817 5816 5814 5812 5810 5807 5805 5803 5801 5799 5796 5794 5791 5788 5785 5783 5780 5776
5820 5824 5826 5828 5829 5831 5833 5833 5837 5840 5840 5841 5842 5842 5842 5842 5841 5841 5840 5839 5837 5835 5833 5832 5830 5827 5822 5816 5812 5810 5809 5809 5808 5807 5805 5802 5800 5798 5795 5792 5789 5786 5783 5780 5777 5774 5772 5768 5764
5815 5818 5821 5822 5823 5825 5829 5829 5831 5834 5833 5832 5833 5834 5834 5834 5834 5834 5834 5832 5831 5829 5827 5825 5822 5819 5814 5808 5804 5803 5803 5802 5802 5801 5799 5796 5793 5790 5787 5783 5780 5776 5773 5770 5766 5763 5759 5755 5751
5810 5813 5816 5817 5818 5821 5824 5823 5825 5825 5824 5824 5824 5825 5825 5826 5826 5826 5826 5825 5823 5821 5819 5816 5814 5811 5808 5803 5800 5798 5798 5797 5796 5794 5792 5789 5785 5781 5778 5774 5770 5766 5762 5758 5754 5751 5747 5742 5737
5805 5808 5811 5813 5814 5816 5818 5818 5820 5818 5818 5819 5819 5818 5818 5818 5818 5818 5818 5817 5815 5813 5810 5808 5806 5804 5801 5798 5795 5793 5791 5790 5788 5786 5783 5779 5775 5771 5767 5763 5759 5755 5751 5747 5742 5738 5733 5728 5723
5800 5802 5806 5808 5809 5810 5812 5814 5814 5813 5813 5813 5812 5812 5812 5812 5812 5811 5810 5809 5807 5804 5801 5799 5797 5796 5794 5791 5789 5786 5784 5781 5779 5775 5772 5768 5764 5760 5756 5752 5748 5743 5739 5734 5729 5724 5718 5713 5707
5794 5798 5800 5801 5802 5803 5806 5807 5807 5807 5807 5807 5806 5806 5806 5806 5806 5805 5804 5802 5799 5797 5794 5792 5789 5787 5785 5783 5781 5778 5775 5771 5768 5765 5760 5756 5752 5748 5744 5739 5735 5730 5725 5719 5714 5708 5702 5697 5690
5788 5791 5792 5794 5795 5797 5799 5802 5799 5800 5801 5801 5801 5800 5799 5799 5798 5797 5795 5793 5791 5788 5785 5782 5780 5777 5776 5774 5771 5768 5764 5761 5757 5753 5748 5744 5739 5735 5731 5726 5721 5715 5710 5704 5698 5693 5687 5681 5674
5781 5782 5783 5785 5787 5790 5791 5793 5790 5791 5792 5793 5794 5793 5792 5790 5789 5788 5787 5785 5782 5779 5776 5774 5771 5768 5767 5765 5761 5758 5754 5750 5745 5741 5736 5731 5726 5722 5717 5711 5706 5700 5695 5689 5684 5678 5672 5666 5659